EW7735 Weather Reports


time (UTC)temp
C
wind
direction
speed
KPH
gust
KPH
rain 1hr
cm
rain 24hr
cm
rain mn
cm
humidity
%
barometer
mb
20260510164558 17 1 8.0 19.3 0.00 0.00 0.00 73 1018.6
20260510163019 17 350 9.7 22.5 0.00 0.00 0.00 74 1018.1
20260510161628 17 1 8.0 16.1 0.00 0.00 0.00 77 1017.3
20260510160112 17 10 6.4 19.3 0.00 0.00 0.00 80 1016.9
20260510154550 16 1 9.7 22.5 0.00 0.00 0.00 80 1016.4
20260510153033 16 1 9.7 16.1 0.00 0.00 0.00 81 1016.6
20260510151508 16 1 4.8 14.5 0.00 0.00 0.00 81 1016.5
20260510150010 16 1 4.8 20.9 0.00 0.00 0.00 81 1016.0
20260510144626 16 1 9.7 22.5 0.00 0.00 0.00 81 1015.3
20260510143106 17 1 6.4 16.1 0.00 0.00 0.00 82 1015.6
20260510141624 17 1 4.8 14.5 0.00 0.00 0.00 82 1015.6
20260510140126 17 1 4.8 9.7 0.00 0.00 0.00 84 1015.8
20260510134507 17 1 1.6 4.8 0.00 0.00 0.00 85 1015.6
20260510133015 17 1 3.2 6.4 0.00 0.00 0.00 86 1016.6
20260510131624 17 1 0.0 0.0 0.00 0.00 0.00 85 1015.8
20260510124548 17 1 0.0 0.0 0.00 0.00 0.00 85 1015.4
20260510123024 17 1 0.0 0.0 0.00 0.00 0.00 84 1014.5
20260510121554 17 1 0.0 0.0 0.00 0.00 0.00 83 1014.3
20260510120010 16 1 0.0 0.0 0.00 0.03 0.00 83 1013.7
20260510114622 16 1 0.0 0.0 0.00 0.03 0.00 82 1013.2
20260510113112 16 1 0.0 0.0 0.00 0.03 0.00 81 1013.0
20260510111630 16 1 0.0 0.0 0.00 0.03 0.00 81 1012.8
20260510110104 17 1 0.0 0.0 0.00 0.03 0.00 79 1012.6
20260510104604 17 1 0.0 0.0 0.00 0.03 0.00 78 1012.3
20260510103100 17 1 0.0 0.0 0.00 0.03 0.00 77 1012.3
20260510101556 17 1 0.0 0.0 0.00 0.03 0.00 77 1012.3
20260510094547 17 1 0.0 1.6 0.00 0.03 0.00 76 1011.9
20260510093019 17 1 0.0 3.2 0.00 0.03 0.00 76 1012.0
20260510091541 18 1 0.0 0.0 0.00 0.03 0.00 75 1011.6
20260510090015 18 1 0.0 3.2 0.00 0.03 0.00 74 1011.3
20260510084550 18 181 0.0 0.0 0.00 0.03 0.00 73 1010.8
20260510083104 18 182 1.6 4.8 0.00 0.03 0.00 72 1010.8
20260510081555 19 182 0.0 4.8 0.00 0.03 0.00 70 1010.1
20260510080052 20 181 0.0 3.2 0.00 0.03 0.00 68 1010.2
20260510074631 20 182 0.0 4.8 0.00 0.03 0.00 67 1009.9
20260510073111 20 211 11.3 30.6 0.00 0.03 0.00 65 1008.4
20260510071505 20 168 8.0 17.7 0.00 0.03 0.00 61 1010.0
20260510070023 21 197 8.0 24.1 0.00 0.03 0.00 60 1010.9
20260510064621 21 172 9.7 25.7 0.00 0.03 0.00 62 1010.4
20260510063109 19 129 3.2 6.4 0.00 0.03 0.00 73 1011.3
20260510061629 20 339 0.0 4.8 0.00 0.03 0.00 71 1012.2
20260510060034 19 341 0.0 3.2 0.00 0.03 0.00 71 1012.4
20260510054625 20 340 0.0 3.2 0.00 0.03 0.00 70 1012.4
20260510053111 20 340 0.0 0.0 0.00 0.03 0.00 68 1012.6
20260510051623 20 340 0.0 6.4 0.00 0.03 0.00 67 1012.7
20260510050053 20 343 1.6 8.0 0.00 0.03 0.00 67 1012.8
20260510044556 21 341 3.2 14.5 0.00 0.03 0.03 67 1012.4
20260510043029 20 151 0.0 0.0 0.00 0.03 0.03 67 1011.7
20260510041549 20 151 0.0 0.0 0.00 0.03 0.03 66 1011.1
20260510040024 20 151 0.0 0.0 0.00 0.03 0.03 66 1010.8
20260510034634 20 151 0.0 0.0 0.00 0.03 0.03 65 1010.7
20260510033114 20 151 0.0 0.0 0.00 0.03 0.03 64 1010.6
20260510031628 21 151 0.0 0.0 0.00 0.03 0.03 61 1010.8
20260510030115 21 151 0.0 0.0 0.00 0.03 0.03 61 1010.8
20260510024506 21 151 0.0 0.0 0.00 0.03 0.03 58 1010.5
20260510023100 21 151 0.0 0.0 0.00 0.03 0.03 57 1010.0
20260510021558 22 151 0.0 0.0 0.00 0.03 0.03 54 1009.2
20260510020053 22 1 0.0 0.0 0.00 0.03 0.03 51 1009.0
20260510014543 23 1 0.0 0.0 0.00 0.05 0.03 47 1008.7
20260510013016 24 151 0.0 0.0 0.00 0.05 0.03 45 1008.3
20260510011552 25 151 0.0 4.8 0.00 0.05 0.03 42 1008.2
20260510010111 25 139 3.2 11.3 0.00 0.05 0.03 43 1008.0
20260510004551 26 168 4.8 12.9 0.00 0.38 0.03 44 1007.9
20260510003027 26 133 3.2 6.4 0.00 0.38 0.03 43 1007.8
20260510001510 26 151 4.8 11.3 0.00 0.38 0.03 39 1007.8
20260510000015 26 116 3.2 12.9 0.00 1.40 0.03 36 1007.9
20260509234558 27 120 3.2 11.3 0.00 1.40 0.03 34 1007.9
20260509233017 27 148 8.0 16.1 0.00 1.40 0.03 32 1008.1
20260509231505 27 106 6.4 17.7 0.00 1.40 0.03 33 1008.1
20260509230139 27 109 1.6 16.1 0.00 1.40 0.03 34 1008.1
20260509224558 27 164 8.0 17.7 0.00 1.40 0.03 33 1008.3
20260509223102 28 129 3.2 14.5 0.00 1.40 0.03 35 1008.2
20260509221604 28 87 8.0 17.7 0.00 1.40 0.03 32 1008.3
20260509220024 28 145 4.8 12.9 0.00 1.40 0.03 32 1008.4
20260509214633 28 150 1.6 12.9 0.00 1.40 0.03 33 1008.5
20260509213112 27 125 6.4 20.9 0.00 1.40 0.03 32 1008.6
20260509211549 28 113 3.2 12.9 0.00 1.40 0.03 31 1008.8
20260509210028 27 170 8.0 14.5 0.00 1.40 0.03 31 1009.0
20260509204518 28 112 3.2 12.9 0.00 1.40 0.03 30 1009.3
20260509203019 28 129 4.8 14.5 0.00 1.40 0.03 31 1009.3
20260509201635 28 143 4.8 11.3 0.00 1.40 0.03 36 1009.3
20260509200108 27 160 4.8 12.9 0.00 1.40 0.03 34 1009.6
20260509194519 27 155 1.6 14.5 0.00 1.40 0.03 31 1009.8
20260509193127 27 93 6.4 14.5 0.00 1.40 0.03 33 1009.9
20260509191607 27 128 3.2 17.7 0.00 1.40 0.03 31 1009.9
20260509190039 27 100 3.2 12.9 0.00 1.40 0.03 34 1009.9
20260509184525 27 141 3.2 11.3 0.00 1.40 0.03 34 1010.1
20260509183017 26 144 0.0 11.3 0.00 1.40 0.03 38 1010.2
20260509181541 26 232 8.0 12.9 0.00 1.40 0.03 43 1010.4
20260509180021 26 228 1.6 9.7 0.00 1.40 0.03 49 1010.5
20260509174543 25 149 3.2 12.9 0.00 1.40 0.03 47 1010.7
20260509173014 25 138 6.4 12.9 0.00 1.40 0.03 51 1010.9
20260509171608 25 220 3.2 9.7 0.00 1.40 0.03 60 1011.0
20260509170053 25 147 3.2 6.4 0.00 1.40 0.03 61 1011.0
20260509164628 24 131 1.6 6.4 0.00 1.40 0.03 63 1011.1